星链-33887 (STARLINK-33887)

导读

STARLINK-33887是美国太空探索技术公司SpaceX于2025年4月28日发射的星链(Starlink)星座卫星,运行于近地轨道,是全球星链宽带互联网组网的组成单元。该卫星旨在为全球缺乏传统通信基础设施的偏远、农村地区提供高速低延迟宽带服务,助力星链星座持续扩容,进一步完善覆盖全球的卫星互联网接入能力。

基本信息
目录编号:
63680
目录名称:
STARLINK-33887
国际标识:
2025-085S
轨道中心:
EARTH
卫星名称:
星链-33887
卫星全名:
星链-33887 (STARLINK-33887)
卫星状态:
在轨 (已飞行412 天)
发射日期:
2025-04-28 UTC
国别 :
美国 (US)
星等 :
--
轨道信息
数据来源 国际轨道数据
星历时间: 2026-06-14T04:00:02+0800
8小时前
查看轨道信息
半长轴: 6861.134km
偏心率: 0.0001684
轨道倾角: 42.999°
近地点辐角 273.150°
升交点赤经 207.498°
平近点角 280.721°
近地点: 481.841km
远地点: 484.153km
周期: 94.266分钟
每日圈数: 15.275977
详细信息
固有亮度:
5
最大亮度:
2.5
卫星平台:
Starlink V1.0
覆盖范围:
全球
运营商:
太空探索技术公司
运营商所在国:
美国
制造商(研发单位):
太空探索技术公司
制造商所在国:
美国
使用方式:
暂无
卫星简介
Starlink 计划是 SpaceX 推出的全球卫星互联网项目,通过发射低轨道卫星,为全球尤其是偏远地区提供高速、低延迟的互联网服务。自 2019 年起,Starlink 已部署数千颗卫星,旨在缩小全球数字鸿沟,推动互联网普及。该项目还为军事、航空等行业提供通信支持,带来广泛经济效益。
2D轨道图
3D轨道图
轨道高度分析图
轨道倾角分析图
轨道综合分析图
查看轨道综合分析图